,,Stat6,,Stat2,,Stat8,,Stat9,,Stat10,,Wind1,,Wind1,
time,status,PA1M_AVG,status,PR1M_SUM,status,RH1M_AVG,status,SR1M_AVG,status,TA1M_AVG,status,W1dAve1m,status,W1sAve1m,
2008-09-03, 00:00:00,VALID,917.494,VALID,0,VALID,100,VALID,-0.135847,VALID,19.3182,VALID,103,VALID,0,
2008-09-03, 00:01:00,VALID,917.458,VALID,0,VALID,100,VALID,-0.101885,VALID,19.3147,VALID,103,VALID,0,
2008-09-03, 00:02:00,VALID,917.436,VALID,0,VALID,100,VALID,-0.101885,VALID,19.3177,VALID,103,VALID,0,
2008-09-03, 00:03:00,VALID,917.441,VALID,0,VALID,100,VALID,-0.101885,VALID,19.3309,VALID,109,VALID,0,
2008-09-03, 00:04:00,VALID,917.446,VALID,0,VALID,100,VALID,-0.135847,VALID,19.3339,VALID,119,VALID,0,
2008-09-03, 00:05:00,VALID,917.443,VALID,0,VALID,100,VALID,-0.0509425,VALID,19.3334,VALID,119,VALID,0,
2008-09-03, 00:06:00,VALID,917.422,VALID,0,VALID,100,VALID,-0.0509425,VALID,19.3462,VALID,119,VALID,0,
2008-09-03, 00:07:00,VALID,917.38,VALID,0,VALID,100,VALID,0.0169808,VALID,19.3287,VALID,119,VALID,0,
2008-09-03, 00:08:00,VALID,917.351,VALID,0,VALID,100,VALID,0.0169808,VALID,19.3514,VALID,185,VALID,0,
2008-09-03, 00:09:00,VALID,917.322,VALID,0,VALID,100,VALID,0,VALID,19.3579,VALID,231,VALID,0,
2008-09-03, 00:10:00,VALID,917.318,VALID,0,VALID,100,VALID,0,VALID,19.3681,VALID,231,VALID,0,
2008-09-03, 00:11:00,VALID,917.319,VALID,0,VALID,100,VALID,0.0169808,VALID,19.3681,VALID,226,VALID,0,
2008-09-03, 00:12:00,VALID,917.309,VALID,0,VALID,100,VALID,-0.0169808,VALID,19.3776,VALID,196,VALID,0,
2008-09-03, 00:13:00,VALID,917.3,VALID,0,VALID,100,VALID,0,VALID,19.3906,VALID,196,VALID,0,
2008-09-03, 00:14:00,VALID,917.263,VALID,0,VALID,100,VALID,0.0169808,VALID,19.3938,VALID,196,VALID,0,
2008-09-03, 00:15:00,VALID,917.252,VALID,0,VALID,100,VALID,-0.0339617,VALID,19.4043,VALID,196,VALID,0,
2008-09-03, 00:16:00,VALID,917.202,VALID,0,VALID,100,VALID,0,VALID,19.3911,VALID,222,VALID,0,
2008-09-03, 00:17:00,VALID,917.172,VALID,0,VALID,100,VALID,0.0169808,VALID,19.3846,VALID,254,VALID,0.046875,
2008-09-03, 00:18:00,VALID,917.155,VALID,0,VALID,100,VALID,-0.0169808,VALID,19.3651,VALID,260,VALID,0.0697545,
2008-09-03, 00:19:00,VALID,917.143,VALID,0,VALID,100,VALID,0,VALID,19.3454,VALID,259,VALID,0,
2008-09-03, 00:20:00,VALID,917.133,VALID,0,VALID,100,VALID,0,VALID,19.3487,VALID,226,VALID,0,
2008-09-03, 00:21:00,VALID,917.121,VALID,0,VALID,100,VALID,-0.0169808,VALID,19.3619,VALID,151,VALID,0.108854,
2008-09-03, 00:22:00,VALID,917.116,VALID,0,VALID,100,VALID,0,VALID,19.3512,VALID,162,VALID,0,
2008-09-03, 00:23:00,VALID,917.094,VALID,0,VALID,100,VALID,0.0169808,VALID,19.3514,VALID,168,VALID,0,
2008-09-03, 00:24:00,VALID,917.081,VALID,0,VALID,100,VALID,0,VALID,19.3579,VALID,185,VALID,0.150298,
2008-09-03, 00:25:00,VALID,917.07,VALID,0,VALID,100,VALID,-0.0169808,VALID,19.3482,VALID,185,VALID,0.0538862,
2008-09-03, 00:26:00,VALID,917.07,VALID,0,VALID,100,VALID,-0.0509425,VALID,19.3482,VALID,185,VALID,0.00599564,
2008-09-03, 00:27:00,VALID,917.069,VALID,0,VALID,100,VALID,-0.0169808,VALID,19.3517,VALID,185,VALID,0,
2008-09-03, 00:28:00,VALID,917.06,VALID,0,VALID,100,VALID,-0.0169808,VALID,19.3489,VALID,185,VALID,0,
2008-09-03, 00:29:00,VALID,917.035,VALID,0,VALID,100,VALID,-0.0509425,VALID,19.3424,VALID,185,VALID,0,
2008-09-03, 00:30:00,VALID,917.031,VALID,0,VALID,100,VALID,-0.0509425,VALID,19.3457,VALID,185,VALID,0,
2008-09-03, 00:31:00,VALID,917.048,VALID,0,VALID,100,VALID,-0.0339617,VALID,19.3519,VALID,164,VALID,0.0976563,
2008-09-03, 00:32:00,VALID,917.045,VALID,0,VALID,100,VALID,-0.0339617,VALID,19.3616,VALID,146,VALID,0,
2008-09-03, 00:33:00,VALID,917.012,VALID,0,VALID,100,VALID,-0.0679233,VALID,19.3522,VALID,145,VALID,0,
2008-09-03, 00:34:00,VALID,917.007,VALID,0,VALID,100,VALID,-0.0679233,VALID,19.3649,VALID,145,VALID,0,
2008-09-03, 00:35:00,VALID,916.995,VALID,0,VALID,100,VALID,0,VALID,19.3484,VALID,145,VALID,0,
2008-09-03, 00:36:00,VALID,916.97,VALID,0,VALID,100,VALID,0,VALID,19.3322,VALID,145,VALID,0,
2008-09-03, 00:37:00,VALID,916.955,VALID,0,VALID,100,VALID,0,VALID,19.3387,VALID,145,VALID,0.0845703,
2008-09-03, 00:38:00,VALID,916.93,VALID,0,VALID,100,VALID,0,VALID,19.3579,VALID,145,VALID,0,
2008-09-03, 00:39:00,VALID,916.915,VALID,0,VALID,100,VALID,0,VALID,19.3616,VALID,145,VALID,0,
2008-09-03, 00:40:00,VALID,916.907,VALID,0,VALID,100,VALID,0,VALID,19.3582,VALID,145,VALID,0,
2008-09-03, 00:41:00,VALID,916.902,VALID,0,VALID,100,VALID,-0.0169808,VALID,19.3584,VALID,148,VALID,0.25705,
2008-09-03, 00:42:00,VALID,916.89,VALID,0,VALID,100,VALID,0,VALID,19.3582,VALID,156,VALID,0.173314,
2008-09-03, 00:43:00,VALID,916.879,VALID,0,VALID,100,VALID,-0.0169808,VALID,19.3449,VALID,179,VALID,0,
2008-09-03, 00:44:00,VALID,916.88,VALID,0,VALID,100,VALID,-0.0169808,VALID,19.3384,VALID,184,VALID,0,
2008-09-03, 00:45:00,VALID,916.885,VALID,0,VALID,100,VALID,0,VALID,19.3354,VALID,184,VALID,0,
2008-09-03, 00:46:00,VALID,916.896,VALID,0,VALID,100,VALID,0,VALID,19.3422,VALID,184,VALID,0,
2008-09-03, 00:47:00,VALID,916.886,VALID,0,VALID,100,VALID,0,VALID,19.326,VALID,184,VALID,0,
2008-09-03, 00:48:00,VALID,916.893,VALID,0,VALID,100,VALID,0.0169808,VALID,19.3025,VALID,184,VALID,0,
2008-09-03, 00:49:00,VALID,916.872,VALID,0,VALID,100,VALID,0.0169808,VALID,19.303,VALID,184,VALID,0,
2008-09-03, 00:50:00,VALID,916.884,VALID,0,VALID,100,VALID,-0.0339617,VALID,19.31,VALID,171,VALID,0,
2008-09-03, 00:51:00,VALID,916.88,VALID,0,VALID,100,VALID,-0.0849042,VALID,19.3077,VALID,133,VALID,0,
2008-09-03, 00:52:00,VALID,916.885,VALID,0,VALID,100,VALID,-0.118866,VALID,19.2915,VALID,126,VALID,0,
2008-09-03, 00:53:00,VALID,916.877,VALID,0,VALID,100,VALID,-0.118866,VALID,19.292,VALID,111,VALID,0,
2008-09-03, 00:54:00,VALID,916.871,VALID,0,VALID,100,VALID,-0.118866,VALID,19.285,VALID,106,VALID,0,
2008-09-03, 00:55:00,VALID,916.885,VALID,0,VALID,100,VALID,-0.101885,VALID,19.2882,VALID,89,VALID,0.130907,
2008-09-03, 00:56:00,VALID,916.89,VALID,0,VALID,100,VALID,-0.101885,VALID,19.285,VALID,87,VALID,0,
2008-09-03, 00:57:00,VALID,916.904,VALID,0,VALID,100,VALID,-0.118866,VALID,19.2788,VALID,87,VALID,0,
2008-09-03, 00:58:00,VALID,916.892,VALID,0,VALID,100,VALID,-0.101885,VALID,19.2653,VALID,87,VALID,0,
2008-09-03, 00:59:00,VALID,916.873,VALID,0,VALID,100,VALID,-0.101885,VALID,19.2753,VALID,87,VALID,0,
2008-09-03, 01:00:00,VALID,916.845,VALID,0,VALID,100,VALID,-0.101885,VALID,19.2912,VALID,87,VALID,0,
2008-09-03, 01:01:00,VALID,916.839,VALID,0,VALID,100,VALID,-0.101885,VALID,19.298,VALID,88,VALID,0,
2008-09-03, 01:02:00,VALID,916.824,VALID,0,VALID,100,VALID,-0.135847,VALID,19.3047,VALID,88,VALID,0,
2008-09-03, 01:03:00,VALID,916.795,VALID,0,VALID,100,VALID,-0.118866,VALID,19.3142,VALID,88,VALID,0,
2008-09-03, 01:04:00,VALID,916.776,VALID,0,VALID,100,VALID,-0.101885,VALID,19.3172,VALID,88,VALID,0,
2008-09-03, 01:05:00,VALID,916.762,VALID,0,VALID,100,VALID,-0.0849042,VALID,19.3239,VALID,88,VALID,0,
2008-09-03, 01:06:00,VALID,916.752,VALID,0,VALID,100,VALID,-0.0339617,VALID,19.323,VALID,88,VALID,0,
2008-09-03, 01:07:00,VALID,916.733,VALID,0,VALID,100,VALID,0,VALID,19.316,VALID,88,VALID,0,
2008-09-03, 01:08:00,VALID,916.728,VALID,0,VALID,100,VALID,0,VALID,19.3257,VALID,88,VALID,0,
2008-09-03, 01:09:00,VALID,916.712,VALID,0,VALID,100,VALID,0,VALID,19.3157,VALID,88,VALID,0,
2008-09-03, 01:10:00,VALID,916.695,VALID,0,VALID,100,VALID,0,VALID,19.3195,VALID,88,VALID,0,
2008-09-03, 01:11:00,VALID,916.689,VALID,0,VALID,100,VALID,0.0169808,VALID,19.3187,VALID,88,VALID,0,
2008-09-03, 01:12:00,VALID,916.676,VALID,0,VALID,100,VALID,0,VALID,19.3187,VALID,160,VALID,0,
2008-09-03, 01:13:00,VALID,916.677,VALID,0,VALID,100,VALID,0,VALID,19.3157,VALID,162,VALID,0,
2008-09-03, 01:14:00,VALID,916.686,VALID,0,VALID,100,VALID,0,VALID,19.3065,VALID,171,VALID,0,
2008-09-03, 01:15:00,VALID,916.669,VALID,0,VALID,100,VALID,0,VALID,19.3058,VALID,151,VALID,0.0368304,
2008-09-03, 01:16:00,VALID,916.665,VALID,0,VALID,100,VALID,0.0169808,VALID,19.316,VALID,145,VALID,0.45367,
2008-09-03, 01:17:00,VALID,916.649,VALID,0,VALID,100,VALID,-0.0169808,VALID,19.3127,VALID,163,VALID,0.021984,
2008-09-03, 01:18:00,VALID,916.641,VALID,0,VALID,100,VALID,-0.0169808,VALID,19.3162,VALID,164,VALID,0.455611,
2008-09-03, 01:19:00,VALID,916.618,VALID,0,VALID,100,VALID,-0.0339617,VALID,19.2998,VALID,161,VALID,0,
2008-09-03, 01:20:00,VALID,916.608,VALID,0,VALID,100,VALID,0,VALID,19.303,VALID,166,VALID,0.000347222,
2008-09-03, 01:21:00,VALID,916.586,VALID,0,VALID,100,VALID,0,VALID,19.3065,VALID,164,VALID,0.178267,
2008-09-03, 01:22:00,VALID,916.589,VALID,0,VALID,100,VALID,-0.0169808,VALID,19.31,VALID,163,VALID,0.0861235,
2008-09-03, 01:23:00,VALID,916.575,VALID,0,VALID,100,VALID,-0.0169808,VALID,19.2933,VALID,139,VALID,0.113636,
2008-09-03, 01:24:00,VALID,916.572,VALID,0,VALID,100,VALID,0,VALID,19.3,VALID,157,VALID,0,
2008-09-03, 01:25:00,VALID,916.566,VALID,0,VALID,100,VALID,0.0169808,VALID,19.2835,VALID,149,VALID,0,
2008-09-03, 01:26:00,VALID,916.562,VALID,0,VALID,100,VALID,-0.0169808,VALID,19.2803,VALID,149,VALID,0,
2008-09-03, 01:27:00,VALID,916.542,VALID,0,VALID,100,VALID,-0.0339617,VALID,19.2803,VALID,149,VALID,0,
2008-09-03, 01:28:00,VALID,916.517,VALID,0,VALID,100,VALID,0,VALID,19.2673,VALID,117,VALID,0,
2008-09-03, 01:29:00,VALID,916.504,VALID,0,VALID,100,VALID,-0.0339617,VALID,19.2648,VALID,118,VALID,0,
2008-09-03, 01:30:00,VALID,916.467,VALID,0,VALID,100,VALID,-0.0169808,VALID,19.2513,VALID,120,VALID,0,
2008-09-03, 01:31:00,VALID,916.439,VALID,0,VALID,100,VALID,-0.0509425,VALID,19.2449,VALID,117,VALID,0,
2008-09-03, 01:32:00,VALID,916.423,VALID,0,VALID,100,VALID,-0.0169808,VALID,19.2449,VALID,116,VALID,0,
2008-09-03, 01:33:00,VALID,916.395,VALID,0,VALID,100,VALID,-0.0339617,VALID,19.2446,VALID,116,VALID,0,
2008-09-03, 01:34:00,VALID,916.369,VALID,0,VALID,100,VALID,-0.0679233,VALID,19.2386,VALID,116,VALID,0,
2008-09-03, 01:35:00,VALID,916.355,VALID,0,VALID,100,VALID,-0.0509425,VALID,19.2451,VALID,118,VALID,0,
2008-09-03, 01:36:00,VALID,916.346,VALID,0,VALID,100,VALID,-0.0679233,VALID,19.2483,VALID,141,VALID,0,
2008-09-03, 01:37:00,VALID,916.332,VALID,0,VALID,100,VALID,-0.0849042,VALID,19.2418,VALID,148,VALID,0,
2008-09-03, 01:38:00,VALID,916.326,VALID,0,VALID,100,VALID,-0.0509425,VALID,19.2289,VALID,148,VALID,0,
2008-09-03, 01:39:00,VALID,916.318,VALID,0,VALID,100,VALID,-0.0339617,VALID,19.2286,VALID,148,VALID,0,
2008-09-03, 01:40:00,VALID,916.308,VALID,0,VALID,100,VALID,-0.0509425,VALID,19.2221,VALID,148,VALID,0,
2008-09-03, 01:41:00,VALID,916.3,VALID,0,VALID,100,VALID,-0.0509425,VALID,19.2256,VALID,141,VALID,0,
2008-09-03, 01:42:00,VALID,916.288,VALID,0,VALID,100,VALID,-0.0339617,VALID,19.2289,VALID,121,VALID,0,
2008-09-03, 01:43:00,VALID,916.262,VALID,0,VALID,100,VALID,-0.0509425,VALID,19.2157,VALID,121,VALID,0,
2008-09-03, 01:44:00,VALID,916.26,VALID,0,VALID,100,VALID,-0.0679233,VALID,19.2354,VALID,121,VALID,0,
2008-09-03, 01:45:00,VALID,916.276,VALID,0,VALID,100,VALID,-0.0169808,VALID,19.2451,VALID,121,VALID,0,
2008-09-03, 01:46:00,VALID,916.276,VALID,0,VALID,100,VALID,-0.0339617,VALID,19.2444,VALID,122,VALID,0,
2008-09-03, 01:47:00,VALID,916.273,VALID,0,VALID,100,VALID,-0.0339617,VALID,19.2481,VALID,136,VALID,0,
2008-09-03, 01:48:00,VALID,916.267,VALID,0,VALID,100,VALID,-0.0339617,VALID,19.2513,VALID,157,VALID,0,
2008-09-03, 01:49:00,VALID,916.27,VALID,0,VALID,100,VALID,0,VALID,19.2513,VALID,212,VALID,0,
2008-09-03, 01:50:00,VALID,916.283,VALID,0,VALID,100,VALID,-0.0169808,VALID,19.2483,VALID,194,VALID,0,
2008-09-03, 01:51:00,VALID,916.287,VALID,0,VALID,100,VALID,-0.0509425,VALID,19.2386,VALID,160,VALID,0,
2008-09-03, 01:52:00,VALID,916.288,VALID,0,VALID,100,VALID,-0.0509425,VALID,19.2157,VALID,142,VALID,0,
2008-09-03, 01:53:00,VALID,916.286,VALID,0,VALID,100,VALID,-0.0339617,VALID,19.2124,VALID,136,VALID,0,
2008-09-03, 01:54:00,VALID,916.291,VALID,0,VALID,100,VALID,-0.0509425,VALID,19.2157,VALID,136,VALID,0,
2008-09-03, 01:55:00,VALID,916.296,VALID,0,VALID,100,VALID,-0.0509425,VALID,19.2089,VALID,136,VALID,0,
2008-09-03, 01:56:00,VALID,916.299,VALID,0,VALID,100,VALID,-0.0169808,VALID,19.2159,VALID,140,VALID,0,
2008-09-03, 01:57:00,VALID,916.285,VALID,0,VALID,100,VALID,0.0169808,VALID,19.2054,VALID,141,VALID,0,
2008-09-03, 01:58:00,VALID,916.269,VALID,0,VALID,100,VALID,-0.0169808,VALID,19.1955,VALID,141,VALID,0,
2008-09-03, 01:59:00,VALID,916.239,VALID,0,VALID,100,VALID,0,VALID,19.2094,VALID,146,VALID,0,
2008-09-03, 02:00:00,VALID,916.224,VALID,0,VALID,100,VALID,0,VALID,19.1992,VALID,147,VALID,0,
2008-09-03, 02:01:00,VALID,916.202,VALID,0,VALID,100,VALID,0,VALID,19.1959,VALID,144,VALID,0,
2008-09-03, 02:02:00,VALID,916.18,VALID,0,VALID,100,VALID,0,VALID,19.1997,VALID,144,VALID,0,
2008-09-03, 02:03:00,VALID,916.156,VALID,0,VALID,100,VALID,-0.0169808,VALID,19.1925,VALID,144,VALID,0,
2008-09-03, 02:04:00,VALID,916.14,VALID,0,VALID,100,VALID,-0.0169808,VALID,19.1994,VALID,144,VALID,0,
2008-09-03, 02:05:00,VALID,916.127,VALID,0,VALID,100,VALID,-0.0509425,VALID,19.1994,VALID,144,VALID,0,
2008-09-03, 02:06:00,VALID,916.127,VALID,0,VALID,100,VALID,-0.0509425,VALID,19.1895,VALID,144,VALID,0,
2008-09-03, 02:07:00,VALID,916.121,VALID,0,VALID,100,VALID,-0.0169808,VALID,19.1865,VALID,144,VALID,0,
2008-09-03, 02:08:00,VALID,916.103,VALID,0,VALID,100,VALID,-0.0169808,VALID,19.1962,VALID,144,VALID,0,
2008-09-03, 02:09:00,VALID,916.114,VALID,0,VALID,100,VALID,-0.0169808,VALID,19.2029,VALID,144,VALID,0,
2008-09-03, 02:10:00,VALID,916.134,VALID,0,VALID,100,VALID,-0.0679233,VALID,19.1735,VALID,144,VALID,0,
2008-09-03, 02:11:00,VALID,916.144,VALID,0,VALID,100,VALID,-0.0339617,VALID,19.1538,VALID,144,VALID,0,
2008-09-03, 02:12:00,VALID,916.136,VALID,0,VALID,100,VALID,0,VALID,19.144,VALID,144,VALID,0,
2008-09-03, 02:13:00,VALID,916.138,VALID,0,VALID,100,VALID,-0.0169808,VALID,19.1408,VALID,144,VALID,0,
2008-09-03, 02:14:00,VALID,916.148,VALID,0,VALID,100,VALID,0,VALID,19.1341,VALID,144,VALID,0,
2008-09-03, 02:15:00,VALID,916.166,VALID,0,VALID,100,VALID,-0.0339617,VALID,19.1443,VALID,144,VALID,0,
2008-09-03, 02:16:00,VALID,916.165,VALID,0,VALID,100,VALID,-0.0339617,VALID,19.1378,VALID,144,VALID,0,
2008-09-03, 02:17:00,VALID,916.168,VALID,0,VALID,100,VALID,0,VALID,19.1378,VALID,144,VALID,0,
2008-09-03, 02:18:00,VALID,916.175,VALID,0,VALID,100,VALID,-0.0169808,VALID,19.1181,VALID,138,VALID,0,
2008-09-03, 02:19:00,VALID,916.192,VALID,0,VALID,100,VALID,0.0169808,VALID,19.1216,VALID,136,VALID,0,
2008-09-03, 02:20:00,VALID,916.187,VALID,0,VALID,100,VALID,-0.0509425,VALID,19.1084,VALID,131,VALID,0,
2008-09-03, 02:21:00,VALID,916.169,VALID,0,VALID,100,VALID,-0.0679233,VALID,19.1198,VALID,133,VALID,0,
2008-09-03, 02:22:00,VALID,916.155,VALID,0,VALID,100,VALID,-0.118866,VALID,19.129,VALID,135,VALID,0,
2008-09-03, 02:23:00,VALID,916.132,VALID,0,VALID,100,VALID,-0.0339617,VALID,19.144,VALID,142,VALID,0,
2008-09-03, 02:24:00,VALID,916.142,VALID,0,VALID,100,VALID,-0.0339617,VALID,19.167,VALID,140,VALID,0,
2008-09-03, 02:25:00,VALID,916.143,VALID,0,VALID,100,VALID,-0.0679233,VALID,19.1702,VALID,146,VALID,0,
2008-09-03, 02:26:00,VALID,916.135,VALID,0,VALID,100,VALID,-0.0509425,VALID,19.1737,VALID,145,VALID,0,
2008-09-03, 02:27:00,VALID,916.127,VALID,0,VALID,100,VALID,-0.0339617,VALID,19.1735,VALID,146,VALID,0,
2008-09-03, 02:28:00,VALID,916.103,VALID,0,VALID,100,VALID,-0.0339617,VALID,19.1702,VALID,152,VALID,0,
2008-09-03, 02:29:00,VALID,916.09,VALID,0,VALID,100,VALID,-0.0339617,VALID,19.17,VALID,157,VALID,0,
2008-09-03, 02:30:00,VALID,916.107,VALID,0,VALID,100,VALID,-0.0679233,VALID,19.1735,VALID,161,VALID,0,
2008-09-03, 02:31:00,VALID,916.114,VALID,0,VALID,100,VALID,0,VALID,19.183,VALID,160,VALID,0,
2008-09-03, 02:32:00,VALID,916.122,VALID,0,VALID,100,VALID,-0.0169808,VALID,19.1728,VALID,158,VALID,0,
2008-09-03, 02:33:00,VALID,916.132,VALID,0,VALID,100,VALID,-0.0509425,VALID,19.1862,VALID,158,VALID,0,
2008-09-03, 02:34:00,VALID,916.113,VALID,0,VALID,100,VALID,0,VALID,19.1628,VALID,158,VALID,0,
2008-09-03, 02:35:00,VALID,916.082,VALID,0,VALID,100,VALID,-0.0169808,VALID,19.1735,VALID,155,VALID,0,
2008-09-03, 02:36:00,VALID,916.086,VALID,0,VALID,100,VALID,-0.0169808,VALID,19.1795,VALID,149,VALID,0,
2008-09-03, 02:37:00,VALID,916.092,VALID,0,VALID,100,VALID,-0.0679233,VALID,19.183,VALID,140,VALID,0,
2008-09-03, 02:38:00,VALID,916.098,VALID,0,VALID,100,VALID,0,VALID,19.1737,VALID,123,VALID,0,
2008-09-03, 02:39:00,VALID,916.106,VALID,0,VALID,100,VALID,0,VALID,19.157,VALID,121,VALID,0,
2008-09-03, 02:40:00,VALID,916.08,VALID,0,VALID,100,VALID,-0.0169808,VALID,19.147,VALID,117,VALID,0,
2008-09-03, 02:41:00,VALID,916.064,VALID,0,VALID,100,VALID,-0.0339617,VALID,19.1505,VALID,117,VALID,0,
2008-09-03, 02:42:00,VALID,916.071,VALID,0,VALID,100,VALID,-0.0169808,VALID,19.1478,VALID,100,VALID,0,
2008-09-03, 02:43:00,VALID,916.085,VALID,0,VALID,100,VALID,-0.0169808,VALID,19.1278,VALID,89,VALID,0,
2008-09-03, 02:44:00,VALID,916.043,VALID,0,VALID,100,VALID,-0.0169808,VALID,19.1116,VALID,89,VALID,0,
2008-09-03, 02:45:00,VALID,916.031,VALID,0,VALID,100,VALID,0.0169808,VALID,19.1114,VALID,89,VALID,0,
2008-09-03, 02:46:00,VALID,916.045,VALID,0,VALID,100,VALID,-0.0339617,VALID,19.1079,VALID,89,VALID,0,
2008-09-03, 02:47:00,VALID,916.025,VALID,0,VALID,100,VALID,-0.0169808,VALID,19.1346,VALID,89,VALID,0,
2008-09-03, 02:48:00,VALID,916.004,VALID,0,VALID,100,VALID,-0.0339617,VALID,19.1605,VALID,89,VALID,0,
2008-09-03, 02:49:00,VALID,915.998,VALID,0,VALID,100,VALID,-0.0169808,VALID,19.1503,VALID,89,VALID,0,
2008-09-03, 02:50:00,VALID,916.007,VALID,0,VALID,100,VALID,-0.0169808,VALID,19.1408,VALID,89,VALID,0,
2008-09-03, 02:51:00,VALID,916.015,VALID,0,VALID,100,VALID,0,VALID,19.1341,VALID,89,VALID,0,
2008-09-03, 02:52:00,VALID,916.008,VALID,0,VALID,100,VALID,0,VALID,19.1271,VALID,89,VALID,0,
2008-09-03, 02:53:00,VALID,915.984,VALID,0,VALID,100,VALID,0,VALID,19.1109,VALID,89,VALID,0,
2008-09-03, 02:54:00,VALID,915.97,VALID,0,VALID,100,VALID,0.0169808,VALID,19.1144,VALID,89,VALID,0,
2008-09-03, 02:55:00,VALID,915.97,VALID,0,VALID,100,VALID,0,VALID,19.1209,VALID,89,VALID,0,
2008-09-03, 02:56:00,VALID,915.967,VALID,0,VALID,100,VALID,0,VALID,19.1243,VALID,89,VALID,0,
2008-09-03, 02:57:00,VALID,915.969,VALID,0,VALID,100,VALID,0,VALID,19.1308,VALID,89,VALID,0,
2008-09-03, 02:58:00,VALID,915.978,VALID,0,VALID,100,VALID,0,VALID,19.1046,VALID,89,VALID,0,
2008-09-03, 02:59:00,VALID,915.976,VALID,0,VALID,100,VALID,-0.0169808,VALID,19.0784,VALID,89,VALID,0,
2008-09-03, 03:00:00,VALID,915.962,VALID,0,VALID,100,VALID,-0.0339617,VALID,19.0796,VALID,89,VALID,0,
2008-09-03, 03:01:00,VALID,915.959,VALID,0,VALID,100,VALID,-0.0169808,VALID,19.0729,VALID,89,VALID,0,
2008-09-03, 03:02:00,VALID,915.945,VALID,0,VALID,100,VALID,-0.0169808,VALID,19.0727,VALID,89,VALID,0,
2008-09-03, 03:03:00,VALID,915.923,VALID,0,VALID,100,VALID,0,VALID,19.0694,VALID,89,VALID,0,
2008-09-03, 03:04:00,VALID,915.911,VALID,0,VALID,100,VALID,-0.0339617,VALID,19.0824,VALID,94,VALID,0,
2008-09-03, 03:05:00,VALID,915.888,VALID,0,VALID,100,VALID,-0.0339617,VALID,19.0727,VALID,100,VALID,0,
2008-09-03, 03:06:00,VALID,915.875,VALID,0,VALID,100,VALID,0,VALID,19.0687,VALID,100,VALID,0,
2008-09-03, 03:07:00,VALID,915.863,VALID,0,VALID,100,VALID,0,VALID,19.0757,VALID,100,VALID,0,
2008-09-03, 03:08:00,VALID,915.853,VALID,0,VALID,100,VALID,-0.0169808,VALID,19.0532,VALID,87,VALID,0,
2008-09-03, 03:09:00,VALID,915.847,VALID,0,VALID,100,VALID,0,VALID,19.0497,VALID,77,VALID,0,
2008-09-03, 03:10:00,VALID,915.838,VALID,0,VALID,100,VALID,0,VALID,19.0465,VALID,62,VALID,0,
2008-09-03, 03:11:00,VALID,915.837,VALID,0,VALID,100,VALID,-0.0339617,VALID,19.0268,VALID,62,VALID,0,
2008-09-03, 03:12:00,VALID,915.803,VALID,0,VALID,100,VALID,-0.0339617,VALID,19.0275,VALID,62,VALID,0,
2008-09-03, 03:13:00,VALID,915.8,VALID,0,VALID,100,VALID,-0.0339617,VALID,19.0178,VALID,62,VALID,0,
2008-09-03, 03:14:00,VALID,915.81,VALID,0,VALID,100,VALID,-0.0339617,VALID,19.018,VALID,62,VALID,0,
2008-09-03, 03:15:00,VALID,915.788,VALID,0,VALID,100,VALID,-0.0169808,VALID,19.0145,VALID,43,VALID,0,
2008-09-03, 03:16:00,VALID,915.784,VALID,0,VALID,100,VALID,-0.0339617,VALID,19.0178,VALID,36,VALID,0,
2008-09-03, 03:17:00,VALID,915.771,VALID,0,VALID,100,VALID,-0.0339617,VALID,19.011,VALID,36,VALID,0,
2008-09-03, 03:18:00,VALID,915.766,VALID,0,VALID,100,VALID,-0.0339617,VALID,19.0148,VALID,36,VALID,0,
2008-09-03, 03:19:00,VALID,915.756,VALID,0,VALID,100,VALID,-0.0169808,VALID,19.0178,VALID,36,VALID,0,
2008-09-03, 03:20:00,VALID,915.748,VALID,0,VALID,100,VALID,-0.0169808,VALID,19.0307,VALID,36,VALID,0,
2008-09-03, 03:21:00,VALID,915.739,VALID,0,VALID,100,VALID,-0.0509425,VALID,19.034,VALID,36,VALID,0,
2008-09-03, 03:22:00,VALID,915.744,VALID,0,VALID,100,VALID,-0.0509425,VALID,19.0303,VALID,36,VALID,0,
2008-09-03, 03:23:00,VALID,915.741,VALID,0,VALID,100,VALID,-0.0679233,VALID,19.027,VALID,31,VALID,0,
2008-09-03, 03:24:00,VALID,915.753,VALID,0,VALID,100,VALID,-0.0849042,VALID,19.03,VALID,38,VALID,0.795603,
2008-09-03, 03:25:00,VALID,915.777,VALID,0,VALID,100,VALID,-0.0679233,VALID,19.0505,VALID,46,VALID,0.279978,
2008-09-03, 03:26:00,VALID,915.774,VALID,0,VALID,100,VALID,-0.0679233,VALID,19.0505,VALID,47,VALID,0,
2008-09-03, 03:27:00,VALID,915.768,VALID,0,VALID,100,VALID,-0.0679233,VALID,19.0467,VALID,41,VALID,0,
2008-09-03, 03:28:00,VALID,915.77,VALID,0,VALID,100,VALID,-0.0679233,VALID,19.0796,VALID,38,VALID,0.0366443,
2008-09-03, 03:29:00,VALID,915.755,VALID,0,VALID,100,VALID,-0.118866,VALID,19.0926,VALID,36,VALID,0,
2008-09-03, 03:30:00,VALID,915.753,VALID,0,VALID,100,VALID,-0.0339617,VALID,19.0924,VALID,34,VALID,0,
2008-09-03, 03:31:00,VALID,915.734,VALID,0,VALID,100,VALID,-0.0509425,VALID,19.0857,VALID,34,VALID,0.0262153,
2008-09-03, 03:32:00,VALID,915.722,VALID,0,VALID,100,VALID,-0.101885,VALID,19.0959,VALID,37,VALID,1.19567,
2008-09-03, 03:33:00,VALID,915.709,VALID,0,VALID,100,VALID,-0.0679233,VALID,19.0889,VALID,25,VALID,1.242,
2008-09-03, 03:34:00,VALID,915.706,VALID,0,VALID,100,VALID,-0.0509425,VALID,19.0921,VALID,21,VALID,1.16389,
2008-09-03, 03:35:00,VALID,915.677,VALID,0,VALID,100,VALID,-0.0339617,VALID,19.1054,VALID,20,VALID,0.910714,
2008-09-03, 03:36:00,VALID,915.662,VALID,0,VALID,100,VALID,-0.0509425,VALID,19.1051,VALID,9,VALID,0,
2008-09-03, 03:37:00,VALID,915.662,VALID,0,VALID,100,VALID,-0.0679233,VALID,19.1081,VALID,5,VALID,0,
2008-09-03, 03:38:00,VALID,915.672,VALID,0,VALID,100,VALID,-0.101885,VALID,19.1183,VALID,5,VALID,0,
2008-09-03, 03:39:00,VALID,915.686,VALID,0,VALID,100,VALID,-0.0679233,VALID,19.1116,VALID,5,VALID,0,
2008-09-03, 03:40:00,VALID,915.702,VALID,0,VALID,100,VALID,-0.0169808,VALID,19.1114,VALID,360,VALID,0,
2008-09-03, 03:41:00,VALID,915.72,VALID,0,VALID,100,VALID,-0.0169808,VALID,19.1109,VALID,360,VALID,0,
2008-09-03, 03:42:00,VALID,915.75,VALID,0,VALID,100,VALID,-0.0169808,VALID,19.1246,VALID,360,VALID,0,
2008-09-03, 03:43:00,VALID,915.771,VALID,0,VALID,100,VALID,-0.0169808,VALID,19.1311,VALID,360,VALID,0,
2008-09-03, 03:44:00,VALID,915.77,VALID,0,VALID,100,VALID,-0.0509425,VALID,19.1276,VALID,360,VALID,0,
2008-09-03, 03:45:00,VALID,915.776,VALID,0,VALID,100,VALID,-0.0169808,VALID,19.1373,VALID,360,VALID,0,
2008-09-03, 03:46:00,VALID,915.757,VALID,0,VALID,100,VALID,-0.0849042,VALID,19.1505,VALID,360,VALID,0,
2008-09-03, 03:47:00,VALID,915.747,VALID,0,VALID,100,VALID,-0.0169808,VALID,19.1575,VALID,360,VALID,0,
2008-09-03, 03:48:00,VALID,915.73,VALID,0,VALID,100,VALID,-0.0849042,VALID,19.1473,VALID,360,VALID,0,
2008-09-03, 03:49:00,VALID,915.706,VALID,0,VALID,100,VALID,-0.0339617,VALID,19.151,VALID,360,VALID,0,
2008-09-03, 03:50:00,VALID,915.707,VALID,0,VALID,100,VALID,-0.0169808,VALID,19.1438,VALID,360,VALID,0,
2008-09-03, 03:51:00,VALID,915.702,VALID,0,VALID,100,VALID,-0.0849042,VALID,19.1535,VALID,360,VALID,0,
2008-09-03, 03:52:00,VALID,915.696,VALID,0,VALID,100,VALID,-0.101885,VALID,19.174,VALID,360,VALID,0,